This demonstration page uses our WeatherBlox Daily Observations layout. Learn more.

Hourly Observations for April 10, 2019

Temp ( °F °C ) Dew Point ( °F °C ) Humidity (%) Winds ( mph kmh ) Pressure ( in mb ) Visibility ( mi km ) Precip ( " mm )
12:10 am 00:10 Clear 58 14.4 51 10.5 78 78 E 18 30 29.54 1001 10 16.0934 0 0
12:35 am 00:35 Clear 57 14.1 51 10.3 78 78 E 17 28 29.54 1000 10 16.0934 0 0
12:55 am 00:55 Clear 57 13.7 50 10 79 79 E 20 31 29.53 1000 10 16.0934 0 0
1:15 am 01:15 Clear 57 14 50 10.1 78 78 E 21 33 29.53 1000 10 16.0934 0 0
1:35 am 01:35 Clear 57 13.8 50 10 78 78 E 18 30 29.52 1000 10 16.0934 0 0
1:55 am 01:55 Clear 56 13.3 50 9.8 80 80 E 16 26 29.52 1000 10 16.0934 0 0
2:15 am 02:15 Clear 55 13 49 9.4 79 79 E 21 33 29.51 999 10 16.0934 0 0
2:35 am 02:35 Clear 55 12.7 47 8.6 76 76 E 24 39 29.5 999 10 16.0934 0 0
2:55 am 02:55 Clear 55 12.5 47 8.3 76 76 E 23 37 29.48 998 10 16.0934 0 0
3:15 am 03:15 Clear 54 12.2 46 8 76 76 E 24 39 29.47 998 10 16.0934 0 0
3:35 am 03:35 Clear 54 12 46 7.5 74 74 E 22 35 29.47 998 10 16.0934 0 0
3:55 am 03:55 Clear 53 11.5 45 7.1 75 75 E 22 35 29.47 998 10 16.0934 0 0
4:15 am 04:15 Clear 52 11.2 44 6.8 75 75 E 21 33 29.47 998 10 16.0934 0 0
4:35 am 04:35 Clear 51 10.6 44 6.6 77 77 E 22 35 29.46 998 10 16.0934 0 0
4:55 am 04:55 Clear 51 10.3 44 6.4 77 77 E 22 35 29.45 997 10 16.0934 0 0
5:15 am 05:15 Clear 50 10.1 43 6.2 77 77 E 22 35 29.45 997 10 16.0934 0 0
5:35 am 05:35 Clear 50 10 43 6 76 76 E 20 31 29.44 997 10 16.0934 0 0
5:55 am 05:55 Clear 49 9.7 43 6 78 78 E 20 31 29.44 997 10 16.0934 0 0
6:15 am 06:15 Clear 49 9.6 43 6 78 78 E 18 30 29.44 997 10 16.0934 0 0
6:35 am 06:35 Clear 49 9.6 43 6 78 78 E 14 22 29.44 997 10 16.0934 0 0
6:55 am 06:55 Clear 49 9.3 42 5.7 78 78 E 14 22 29.44 997 10 16.0934 0 0
7:15 am 07:15 Sunny 49 9.3 42 5.8 79 79 E 15 24 29.43 997 10 16.0934 0 0
7:35 am 07:35 Sunny 48 9.1 42 5.7 79 79 ENE 15 24 29.44 997 10 16.0934 0 0
7:55 am 07:55 Sunny 48 8.8 42 5.7 81 81 NE 14 22 29.45 997 10 16.0934 0 0
8:15 am 08:15 Sunny 47 8.6 42 5.3 80 80 NE 16 26 29.46 997 10 16.0934 0 0
8:35 am 08:35 Sunny 48 9 42 5.5 79 79 NE 18 30 29.46 998 10 16.0934 0 0
8:55 am 08:55 Sunny 49 9.7 42 5.4 75 75 NE 20 31 29.45 997 10 16.0934 0 0
9:15 am 09:15 Sunny 49 9.5 41 5.2 75 75 NE 20 31 29.44 997 10 16.0934 0 0
9:35 am 09:35 Sunny 49 9.6 41 5 73 73 NE 22 35 29.44 997 10 16.0934 0 0
9:55 am 09:55 Sunny 50 9.9 41 5 72 72 NE 28 44 29.4 996 10 16.0934 0 0
10:15 am 10:15 Sunny 50 10.1 41 4.8 70 70 NE 22 35 29.41 996 10 16.0934 0 0
10:35 am 10:35 Sunny 51 10.5 41 4.8 68 68 NE 22 35 29.42 996 10 16.0934 0 0
10:55 am 10:55 Sunny 51 10.6 41 4.9 68 68 NE 22 35 29.41 996 10 16.0934 0 0
11:15 am 11:15 Sunny 52 10.9 41 5 67 67 NE 22 35 29.41 996 10 16.0934 0 0
11:35 am 11:35 Sunny 52 11.2 41 5.1 66 66 NE 26 43 29.4 996 10 16.0934 0 0
11:55 am 11:55 Sunny 52 11.1 41 5 66 66 NE 23 37 29.4 996 10 16.0934 0 0
12:15 pm 12:15 Sunny 53 11.5 42 5.3 66 66 NNE 24 39 29.42 996 10 16.0934 0 0
12:35 pm 12:35 Sunny 53 11.5 42 5.3 66 66 NE 25 41 29.42 996 10 16.0934 0 0
12:55 pm 12:55 Mostly Cloudy 53 11.7 42 5.5 66 66 NE 23 37 29.43 997 10 16.0934 0 0
1:15 pm 13:15 Cloudy 54 12 42 5.7 66 66 NNE 23 37 29.42 996 10 16.0934 0 0
1:35 pm 13:35 Cloudy 55 12.5 42 5.8 64 64 NNE 26 43 29.39 995 10 16.0934 0 0
1:55 pm 13:55 Cloudy 55 12.5 43 5.9 64 64 NNE 26 43 29.4 996 10 16.0934 0 0
2:15 pm 14:15 Cloudy 54 12.1 42 5.8 66 66 NE 26 43 29.41 996 10 16.0934 0 0
2:35 pm 14:35 Cloudy 53 11.8 42 5.8 67 67 N 24 39 29.43 997 10 16.0934 0 0
2:55 pm 14:55 Cloudy 48 9.1 41 5.2 77 77 N 29 46 29.44 997 10 16.0934 0 0
3:15 pm 15:15 Cloudy 45 7 40 4.6 85 85 NNE 28 44 29.45 997 10 16.0934 0 0
3:35 pm 15:35 Cloudy 42 5.4 40 4.3 93 93 NNE 30 48 29.47 998 10 16.0934 0 0
3:55 pm 15:55 Cloudy with Mist and Fog 40 4.4 39 3.7 95 95 NNE 28 44 29.49 999 4 6.43736 0 0
4:15 pm 16:15 Cloudy with Mist and Fog 39 4 38 3.6 97 97 N 30 48 29.5 999 5 8.0467 0 0
4:35 pm 16:35 Cloudy with Mist and Fog 38 3.6 38 3.3 98 98 NNE 28 44 29.49 999 2.5 4.02335 0 0
4:55 pm 16:55 Cloudy with Mist and Fog 38 3.3 38 3.2 99 99 NNE 31 50 29.49 999 2 3.21868 0 0
5:15 pm 17:15 Cloudy with Mist and Fog 38 3.1 38 3.1 100 100 N 26 43 29.52 1000 2.5 4.02335 0 0
5:35 pm 17:35 Cloudy with Mist and Fog 37 3 37 3 100 100 N 23 37 29.57 1001 2.5 4.02335 0 0
5:55 pm 17:55 Cloudy with Mist and Fog 37 2.6 37 2.6 100 100 N 26 43 29.55 1001 2.5 4.02335 0 0
6:15 pm 18:15 Cloudy with Mist and Fog 36 2.1 36 2.1 100 100 NNE 32 52 29.51 999 2.5 4.02335 0 0
6:35 pm 18:35 Cloudy with Nearby Thunderstorms 35 1.9 35 1.9 100 100 N 30 48 29.56 1001 5 8.0467 0 0
6:55 pm 18:55 Cloudy 35 1.7 35 1.7 100 100 NNE 32 52 29.55 1001 7 11.26538 0 0
7:15 pm 19:15 Windy with Storms Likely 35 1.5 35 1.5 100 100 NNE 33 54 29.52 1000 7 11.26538 0 0
7:35 pm 19:35 Cloudy with Rain 35 1.5 35 1.5 100 100 N 23 37 29.58 1002 7 11.26538 0 0
7:55 pm 19:55 Cloudy with Light Rain 34 1.2 34 1.2 100 100 N 28 44 29.55 1001 5 8.0467 0.02 0.508
8:15 pm 20:15 Cloudy with Light Rain 34 1 34 1 100 100 N 30 48 29.53 1000 10 16.0934 0 0
8:35 pm 20:35 Cloudy with Thunderstorms 34 1 34 1 100 100 N 32 52 29.54 1000 10 16.0934 0 0
8:55 pm 20:55 Cloudy with Thunderstorms 33 0.8 33 0.7 99 99 N 26 43 29.56 1001 10 16.0934 0 0
9:15 pm 21:15 Cloudy with Thunderstorms 33 0.5 33 0.3 99 99 N 30 48 29.57 1001 1.75 2.816345 0.1 2.54
9:35 pm 21:35 Cloudy 32 0.2 32 0.2 100 100 N 30 48 29.53 1000 4 6.43736 0.12 3.048
9:55 pm 21:55 Cloudy with Light Wintry Mix 32 0.2 32 0.2 100 100 N 31 50 29.54 1000 10 16.0934 0.12 3.048
10:15 pm 22:15 Cloudy 32 0.2 32 0.1 99 99 N 29 46 29.55 1001 4 6.43736 0.02 0.508
10:35 pm 22:35 Windy with Snow Likely 32 0.1 32 0.1 100 100 NNE 21 33 29.6 1002 5 8.0467 0.12 3.048
10:55 pm 22:55 Windy with Snow Likely 32 0.1 32 0.1 100 100 N 24 39 29.55 1001 3 4.82802 0.23 5.842
11:15 pm 23:15 Cloudy with Light Snow 32 0.1 32 0.1 100 100 NE 16 26 29.62 1003 5 8.0467 0.04 1.016
11:35 pm 23:35 Cloudy 32 0.1 32 0.1 100 100 NNW 15 24 29.57 1001 5 8.0467 0.09 2.286
11:55 pm 23:55 Cloudy 32 0 32 0 100 100 N 13 20 29.57 1001 7 11.26538 0.11 2.794

Powered by AerisWeather